• In Österreich
  • Länderverzeichnis
  • Für 7 Tage
  • Wassertemperatur
  • Satellitenkarten
  • Wetterkarte
  • News
  • Widgets
  • user-avatar
    Anmelden

    Stündliche Wetter Mutare

    Heute, 24 Februar, Samstag

    Zeit Temperatur Niederschläge Wind Luftdruck Luftfeuchtigkeit
    00:00 +19°C° 0 mm 1 m/S 651 mmHg 95%
    01:00 +19°C° 0 mm 1 m/S 651 mmHg 95%
    02:00 +19°C° 0 mm 1 m/S 651 mmHg 96%
    03:00 +18°C° 0 mm 1 m/S 650 mmHg 96%
    04:00 +18°C° 0 mm 1 m/S 650 mmHg 96%
    05:00 +18°C° 0 mm 1 m/S 650 mmHg 95%
    06:00 +20°C° 0 mm 1 m/S 651 mmHg 90%
    07:00 +21°C° 0 mm 1 m/S 651 mmHg 84%
    08:00 +23°C° 0 mm 1 m/S 652 mmHg 79%
    09:00 +25°C° 0,1 mm 1 m/S 652 mmHg 72%
    10:00 +27°C° 0,1 mm 1 m/S 652 mmHg 65%
    11:00 +28°C° 0,1 mm 1 m/S 653 mmHg 58%
    12:00 +29°C° 0,7 mm 1 m/S 652 mmHg 59%
    13:00 +29°C° 0,7 mm 1 m/S 651 mmHg 59%
    14:00 +29°C° 0,7 mm 1 m/S 651 mmHg 60%
    15:00 +28°C° 1 mm 1 m/S 650 mmHg 65%
    16:00 +27°C° 1 mm 1 m/S 650 mmHg 71%
    17:00 +25°C° 1 mm 1 m/S 650 mmHg 77%
    18:00 +24°C° 1,1 mm 1 m/S 650 mmHg 81%
    19:00 +22°C° 1,1 mm 1 m/S 650 mmHg 85%
    20:00 +21°C° 1,1 mm 1 m/S 650 mmHg 89%
    21:00 +21°C° 0,5 mm 1 m/S 650 mmHg 90%
    22:00 +20°C° 0,5 mm 1 m/S 650 mmHg 90%
    23:00 +20°C° 0,5 mm 1 m/S 651 mmHg 91%

    Morgen, 25 Februar, Sonntag

    Zeit Temperatur Niederschläge Wind Luftdruck Luftfeuchtigkeit
    00:00 +20°C° 0 mm 1 m/S 650 mmHg 91%
    01:00 +19°C° 0 mm 1 m/S 650 mmHg 91%
    02:00 +19°C° 0 mm 1 m/S 650 mmHg 91%
    03:00 +19°C° 0 mm 1 m/S 650 mmHg 91%
    04:00 +19°C° 0 mm 1 m/S 650 mmHg 91%
    05:00 +19°C° 0 mm 1 m/S 650 mmHg 91%
    06:00 +20°C° 0 mm 1 m/S 650 mmHg 87%
    07:00 +22°C° 0 mm 1 m/S 651 mmHg 82%
    08:00 +21°C° 0 mm 0 m/S 652 mmHg 78%
    09:00 +26°C° 0,2 mm 1 m/S 652 mmHg 70%
    10:00 +28°C° 0,2 mm 1 m/S 652 mmHg 62%
    11:00 +30°C° 0,2 mm 1 m/S 653 mmHg 55%
    12:00 +30°C° 0,5 mm 1 m/S 652 mmHg 54%
    13:00 +30°C° 0,5 mm 1 m/S 652 mmHg 54%
    14:00 +31°C° 0,5 mm 1 m/S 651 mmHg 54%
    15:00 +29°C° 0,9 mm 1 m/S 651 mmHg 61%
    16:00 +28°C° 0,9 mm 1 m/S 650 mmHg 68%
    17:00 +26°C° 0,9 mm 1 m/S 650 mmHg 75%
    18:00 +24°C° 1,3 mm 1 m/S 650 mmHg 80%
    19:00 +23°C° 1,3 mm 1 m/S 650 mmHg 84%
    20:00 +21°C° 1,3 mm 1 m/S 651 mmHg 89%
    21:00 +21°C° 0,1 mm 1 m/S 651 mmHg 90%
    22:00 +20°C° 0,1 mm 1 m/S 651 mmHg 91%
    23:00 +20°C° 0,1 mm 1 m/S 651 mmHg 92%

    übermorgen, 26 Februar, Montag

    Zeit Temperatur Niederschläge Wind Luftdruck Luftfeuchtigkeit
    00:00 +20°C° 0,6 mm 1 m/S 651 mmHg 93%
    01:00 +19°C° 0,6 mm 1 m/S 651 mmHg 94%
    02:00 +19°C° 0,6 mm 1 m/S 650 mmHg 95%
    03:00 +19°C° 0,3 mm 1 m/S 651 mmHg 95%
    04:00 +19°C° 0,3 mm 1 m/S 651 mmHg 96%
    05:00 +19°C° 0,3 mm 1 m/S 651 mmHg 97%
    06:00 +19°C° 0,4 mm 1 m/S 652 mmHg 96%
    07:00 +19°C° 0,4 mm 1 m/S 652 mmHg 94%
    08:00 +20°C° 0,4 mm 1 m/S 653 mmHg 93%
    09:00 +20°C° 0,5 mm 1 m/S 653 mmHg 91%
    10:00 +21°C° 0,5 mm 1 m/S 653 mmHg 89%
    11:00 +20°C° 0,5 mm 2 m/S 653 mmHg 87%
    12:00 +21°C° 0,6 mm 2 m/S 653 mmHg 86%
    13:00 +21°C° 0,6 mm 2 m/S 653 mmHg 85%
    14:00 +21°C° 0,6 mm 2 m/S 652 mmHg 84%
    15:00 +21°C° 0,8 mm 2 m/S 652 mmHg 86%
    16:00 +20°C° 0,8 mm 2 m/S 652 mmHg 89%
    17:00 +20°C° 0,8 mm 1 m/S 652 mmHg 91%
    18:00 +20°C° 0,6 mm 1 m/S 653 mmHg 93%
    19:00 +19°C° 0,6 mm 1 m/S 653 mmHg 94%
    20:00 +19°C° 0,6 mm 1 m/S 653 mmHg 96%
    21:00 +19°C° 0,3 mm 1 m/S 653 mmHg 96%
    22:00 +19°C° 0,3 mm 1 m/S 654 mmHg 96%
    23:00 +18°C° 0,3 mm 1 m/S 654 mmHg 97%

    27 Februar, Dienstag

    Zeit Temperatur Niederschläge Wind Luftdruck Luftfeuchtigkeit
    00:00 +18°C° 0,4 mm 1 m/S 653 mmHg 97%
    01:00 +18°C° 0,4 mm 1 m/S 653 mmHg 97%
    02:00 +18°C° 0,4 mm 1 m/S 652 mmHg 97%
    03:00 +18°C° 0,4 mm 1 m/S 652 mmHg 97%
    04:00 +18°C° 0,4 mm 1 m/S 652 mmHg 97%
    05:00 +18°C° 0,4 mm 1 m/S 652 mmHg 97%
    06:00 +18°C° 0,3 mm 1 m/S 653 mmHg 96%
    07:00 +18°C° 0,3 mm 1 m/S 653 mmHg 95%
    08:00 +18°C° 0,3 mm 1 m/S 654 mmHg 94%
    09:00 +19°C° 0,4 mm 1 m/S 654 mmHg 93%
    10:00 +19°C° 0,4 mm 1 m/S 654 mmHg 92%
    11:00 +19°C° 0,4 mm 1 m/S 654 mmHg 91%
    12:00 +19°C° 0,1 mm 1 m/S 653 mmHg 91%
    13:00 +19°C° 0,1 mm 1 m/S 653 mmHg 90%
    14:00 +19°C° 0,1 mm 1 m/S 652 mmHg 89%
    15:00 +19°C° 0 mm 1 m/S 652 mmHg 88%
    16:00 +20°C° 0 mm 1 m/S 652 mmHg 88%
    17:00 +20°C° 0 mm 1 m/S 652 mmHg 87%
    18:00 +19°C° 0 mm 1 m/S 652 mmHg 89%
    19:00 +17°C° 0 mm 0 m/S 652 mmHg 91%
    20:00 +16°C° 0 mm 0 m/S 653 mmHg 93%
    21:00 +16°C° 0 mm 0 m/S 653 mmHg 93%
    22:00 +16°C° 0 mm 0 m/S 653 mmHg 93%
    23:00 +16°C° 0 mm 0 m/S 653 mmHg 94%

    28 Februar, Mittwoch

    Zeit Temperatur Niederschläge Wind Luftdruck Luftfeuchtigkeit
    00:00 +16°C° 0 mm 0 m/S 652 mmHg 94%
    01:00 +15°C° 0 mm 0 m/S 652 mmHg 94%
    02:00 +15°C° 0 mm 0 m/S 652 mmHg 95%
    03:00 +15°C° 0 mm 0 m/S 652 mmHg 95%
    04:00 +15°C° 0 mm 0 m/S 652 mmHg 95%
    05:00 +15°C° 0 mm 0 m/S 652 mmHg 95%
    06:00 +16°C° 0 mm 0 m/S 652 mmHg 92%
    07:00 +17°C° 0 mm 0 m/S 653 mmHg 90%
    08:00 +18°C° 0 mm 0 m/S 654 mmHg 87%
    09:00 +20°C° 0,1 mm 0 m/S 654 mmHg 81%
    10:00 +23°C° 0,1 mm 1 m/S 654 mmHg 76%
    11:00 +25°C° 0,1 mm 1 m/S 654 mmHg 70%
    12:00 +25°C° 0,7 mm 1 m/S 653 mmHg 71%
    13:00 +25°C° 0,7 mm 1 m/S 652 mmHg 73%
    14:00 +25°C° 0,7 mm 1 m/S 652 mmHg 74%
    15:00 +24°C° 1,1 mm 1 m/S 651 mmHg 79%
    16:00 +23°C° 1,1 mm 1 m/S 651 mmHg 84%
    17:00 +22°C° 1,1 mm 1 m/S 651 mmHg 89%
    18:00 +21°C° 0,8 mm 1 m/S 651 mmHg 91%
    19:00 +20°C° 0,8 mm 1 m/S 651 mmHg 93%
    20:00 +19°C° 0,8 mm 1 m/S 651 mmHg 95%
    21:00 +19°C° 0,2 mm 1 m/S 652 mmHg 96%
    22:00 +19°C° 0,2 mm 1 m/S 652 mmHg 96%
    23:00 +19°C° 0,2 mm 1 m/S 652 mmHg 97%

    1 März, Donnerstag

    Zeit Temperatur Niederschläge Wind Luftdruck Luftfeuchtigkeit
    00:00 +19°C° 0 mm 1 m/S 651 mmHg 97%
    01:00 +19°C° 0 mm 1 m/S 651 mmHg 97%
    02:00 +19°C° 0 mm 1 m/S 651 mmHg 97%
    03:00 +18°C° 0 mm 1 m/S 651 mmHg 97%
    04:00 +18°C° 0 mm 1 m/S 651 mmHg 97%
    05:00 +16°C° 0 mm 0 m/S 651 mmHg 97%
    06:00 +17°C° 0 mm 0 m/S 651 mmHg 95%
    07:00 +18°C° 0 mm 0 m/S 652 mmHg 92%
    08:00 +18°C° 0 mm 0 m/S 652 mmHg 90%
    09:00 +22°C° 0,1 mm 1 m/S 652 mmHg 84%
    10:00 +23°C° 0,1 mm 1 m/S 652 mmHg 79%
    11:00 +24°C° 0,1 mm 1 m/S 653 mmHg 73%
    12:00 +25°C° 0,7 mm 1 m/S 652 mmHg 73%
    13:00 +25°C° 0,7 mm 1 m/S 651 mmHg 72%
    14:00 +25°C° 0,7 mm 1 m/S 651 mmHg 72%
    15:00 +25°C° 1 mm 1 m/S 651 mmHg 77%
    16:00 +24°C° 1 mm 1 m/S 650 mmHg 81%
    17:00 +23°C° 1 mm 1 m/S 650 mmHg 86%
    18:00 +22°C° 0,6 mm 1 m/S 650 mmHg 90%
    19:00 +20°C° 0,6 mm 1 m/S 650 mmHg 93%
    20:00 +19°C° 0,6 mm 1 m/S 650 mmHg 96%
    21:00 +19°C° 0,2 mm 1 m/S 650 mmHg 96%
    22:00 +19°C° 0,2 mm 1 m/S 650 mmHg 97%
    23:00 +19°C° 0,2 mm 1 m/S 651 mmHg 97%
    Mehr zeigen